Location: L�Ave Maria
(50.7161°N, 1.5911°E)
Time: 13:24:01
(UTC+00:00)

Cosmos 2228 Rocket - Pass Details

Date: 10 July 2020
Orbit: 618 x 652 km, 82.5° (Epoch: 07 August)

Event Time Altitude Azimuth Distance (km) Brightness Sun altitude
Rises 23:03:26 0° 353° (N) 2,987 8.4 -16.2°
Reaches altitude 10° 23:05:46 10° 359° (N) 2,068 7.0 -16.3°
Maximum altitude 23:10:15 50° 75° (ENE) 825 3.7 -16.4°
Enters shadow 23:12:32 26° 139° (SE) 1,272 4.2 -16.5°
